(712) Boliviana(712) Boliviana Epoch 2008 Nov. 30.0 TT = JDT 2454800.5 Goffin M 271.62489 (2000.0) P Q n 0.23824976 Peri. 181.24109 +0.61311799 -0.77113319 a 2.5769999 Node 230.97374 +0.72669250 +0.63571425 e 0.1861622 Incl. 12.75985 +0.30984569 +0.03494273 P 4.14 H 8.32 G 0.03 U 0 From 483 observations at 44 oppositions, 1911-2002, mean residual 0".55.An explanation of the orbital elements is available.
These orbital elements are also available in forms suitable for loading into a number of popular planetarium-type software programs.
Personalized ephemerides for this object (and others) can be generated using the MPES.
Date TT R. A. (2000) Decl. Delta r Elong. Phase V 2009 09 18 02 47.41 +25 19.7 1.369 2.135 127.5 21.9 11.9 2009 09 23 02 48.26 +25 06.7 1.323 2.131 132.2 20.4 11.8 2009 09 28 02 48.29 +24 47.2 1.280 2.126 137.1 18.7 11.6 2009 10 03 02 47.51 +24 21.0 1.241 2.122 142.3 16.8 11.5 2009 10 08 02 45.95 +23 47.7 1.206 2.119 147.7 14.6 11.3 2009 10 13 02 43.66 +23 07.5 1.176 2.115 153.2 12.3 11.2 2009 10 18 02 40.74 +22 20.5 1.151 2.112 159.0 9.7 11.0 2009 10 23 02 37.31 +21 27.3 1.133 2.109 164.8 7.1 10.8 2009 10 28 02 33.54 +20 28.8 1.120 2.107 170.6 4.4 10.6 2009 11 02 02 29.61 +19 26.5 1.114 2.104 175.2 2.2 10.5 2009 11 07 02 25.71 +18 21.8 1.114 2.102 174.2 2.7 10.5 2009 11 12 02 22.01 +17 16.4 1.121 2.101 168.9 5.2 10.7 2009 11 17 02 18.69 +16 12.1 1.134 2.099 163.0 7.9 10.9 2009 11 22 02 15.89 +15 10.7 1.153 2.098 157.1 10.6 11.0 2009 11 27 02 13.74 +14 13.6 1.178 2.097 151.3 13.1 11.2 2009 12 02 02 12.31 +13 22.0 1.208 2.097 145.6 15.4 11.3 2009 12 07 02 11.65 +12 36.6 1.243 2.097 140.1 17.5 11.5 2009 12 12 02 11.78 +11 57.9 1.283 2.097 134.8 19.4 11.6 2009 12 17 02 12.70 +11 26.0 1.327 2.098 129.8 21.1 11.8